contact: severine.martini@mio.osupytheas.fr, dominique.lefevre@mio.osupytheas.fr
Project:EMSO Ligure-ouest http://www.emso-fr.org/EMSO-France
Sensor Aquadopp, Serial 05974 
DOI : "https://doi.org/10.17882/97948" 
Title:EMSO Western Ligurian : Data Bathybot Aquadopp sensor - deploiement 2023-04-28
Datetime,Profondeur,Latitude,Longitude,X_East,Y_North,Z_up,Amplitude_X,Amplitude_Y,Amplitude_Z,Batterie,Sound_Speed,Heading,Pitch,Roll,Pressure,Temperature,Fluorescence,Speed,Direction
time,m,degree_north,degree_east,m.s-1,m.s-1,m.s-1,1,1,1,Volt,m.s-1,degree,degree,degree,dbar,degree_C,arbitrary units (a.u.),m.s-1,degree
2023-10-30T00:03:13,2420,42.8014,5.9826,0.517,0.056,3.783,155.0,151.0,152.0,11.8,1504.7,271.3,-0.8,0.9,2485.532,13.28,4270.0,0.52,83.8
2023-10-30T00:06:13,2420,42.8014,5.9826,0.649,0.052,3.668,155.0,152.0,153.0,11.8,1504.7,271.3,-0.9,0.9,2485.295,13.28,4339.0,0.651,85.4
2023-10-30T00:09:13,2420,42.8014,5.9826,0.665,0.059,3.65,155.0,152.0,152.0,11.8,1504.7,271.3,-0.8,0.9,2485.615,13.28,4452.0,0.668,84.9
2023-10-30T00:12:13,2420,42.8014,5.9826,0.605,0.04,3.664,155.0,152.0,152.0,11.8,1504.7,271.3,-0.9,0.9,2486.046,13.28,11337.0,0.606,86.2
2023-10-30T00:15:14,2420,42.8014,5.9826,0.643,0.049,3.687,155.0,152.0,152.0,11.8,1504.7,271.4,-0.8,0.9,2485.223,13.28,9256.0,0.645,85.6
2023-10-30T00:18:14,2420,42.8014,5.9826,0.75,0.065,3.568,155.0,151.0,152.0,11.8,1504.7,271.4,-0.8,0.9,2485.073,13.28,9615.0,0.753,85.1
2023-10-30T00:21:14,2420,42.8014,5.9826,0.461,0.034,2.99,155.0,151.0,152.0,11.8,1504.7,271.3,-0.8,0.9,2485.683,13.28,8836.0,0.462,85.8
2023-10-30T00:24:14,2420,42.8014,5.9826,0.495,0.052,3.857,155.0,152.0,153.0,11.8,1504.7,271.4,-0.8,0.9,2485.392,13.28,9589.0,0.498,84.0
2023-10-30T00:27:14,2420,42.8014,5.9826,0.862,0.045,3.463,155.0,152.0,152.0,11.8,1504.7,271.4,-0.8,0.9,2485.289,13.28,11384.0,0.863,87.0
2023-10-30T00:30:14,2420,42.8014,5.9826,0.708,0.032,3.596,155.0,152.0,152.0,11.8,1504.7,271.3,-0.8,0.9,2485.195,13.28,8947.0,0.709,87.4
2023-10-30T00:33:13,2420,42.8014,5.9826,0.428,0.054,3.857,155.0,152.0,152.0,11.8,1504.7,271.3,-0.8,0.9,2485.221,13.28,9639.0,0.431,82.8
2023-10-30T00:36:13,2420,42.8014,5.9826,0.816,0.037,3.536,155.0,152.0,152.0,11.8,1504.7,271.4,-0.8,0.9,2485.185,13.28,12405.0,0.817,87.4
2023-10-30T00:39:13,2420,42.8014,5.9826,0.613,0.053,3.692,155.0,152.0,152.0,11.8,1504.7,271.3,-0.9,0.9,2485.155,13.28,9561.0,0.615,85.1
2023-10-30T00:42:13,2420,42.8014,5.9826,0.69,0.035,3.608,155.0,151.0,152.0,11.7,1504.7,271.3,-0.8,0.9,2485.542,13.28,10533.0,0.691,87.1
2023-10-30T00:45:13,2420,42.8014,5.9826,0.706,0.057,3.622,155.0,151.0,152.0,11.8,1504.7,271.3,-0.8,0.9,2485.259,13.28,9855.0,0.708,85.4
2023-10-30T00:48:13,2420,42.8014,5.9826,0.628,0.043,3.746,155.0,151.0,152.0,11.7,1504.7,271.3,-0.8,0.9,2485.404,13.28,10532.0,0.629,86.1
2023-10-30T00:51:13,2420,42.8014,5.9826,0.604,0.038,3.708,155.0,152.0,152.0,11.8,1504.7,271.4,-0.8,0.9,2485.494,13.28,7958.0,0.605,86.4
2023-10-30T00:54:14,2420,42.8014,5.9826,0.725,0.053,3.618,155.0,151.0,152.0,11.8,1504.7,271.3,-0.8,0.9,2485.299,13.28,8537.0,0.727,85.8
2023-10-30T00:57:14,2420,42.8014,5.9826,0.678,0.052,3.587,155.0,152.0,152.0,11.8,1504.7,271.3,-0.9,0.9,2485.179,13.28,8841.0,0.68,85.6
2023-10-30T01:03:13,2420,42.8014,5.9826,0.711,0.04,3.611,155.0,151.0,152.0,11.8,1504.7,271.4,-0.8,0.9,2485.36,13.28,9561.0,0.712,86.8
2023-10-30T01:06:14,2420,42.8014,5.9826,0.627,0.04,3.679,155.0,152.0,152.0,11.8,1504.7,271.3,-0.9,0.9,2485.334,13.28,8828.0,0.628,86.4
2023-10-30T01:09:14,2420,42.8014,5.9826,0.718,0.028,3.566,155.0,151.0,152.0,11.8,1504.7,271.3,-0.8,0.9,2485.611,13.28,13294.0,0.718,87.8
2023-10-30T01:12:14,2420,42.8014,5.9826,0.618,0.05,3.696,155.0,151.0,152.0,11.8,1504.7,271.5,-0.8,0.9,2485.454,13.28,10948.0,0.62,85.4
2023-10-30T01:15:14,2420,42.8014,5.9826,0.74,0.044,3.623,155.0,151.0,152.0,11.8,1504.7,271.4,-0.8,0.9,2485.263,13.28,13208.0,0.741,86.6
2023-10-30T01:18:14,2420,42.8014,5.9826,0.584,0.044,3.744,155.0,151.0,152.0,11.8,1504.7,271.3,-0.8,0.9,2485.103,13.28,13571.0,0.586,85.7
2023-10-30T01:21:14,2420,42.8014,5.9826,0.811,0.039,3.514,155.0,152.0,152.0,11.8,1504.7,271.3,-0.8,0.9,2485.167,13.28,12804.0,0.812,87.2
2023-10-30T01:24:14,2420,42.8014,5.9826,0.977,0.042,3.303,155.0,151.0,152.0,11.8,1504.7,271.4,-0.8,0.9,2485.506,13.28,10309.0,0.978,87.5
2023-10-30T01:27:13,2420,42.8014,5.9826,0.469,0.04,3.805,155.0,151.0,152.0,11.8,1504.7,271.4,-0.8,0.9,2485.33,13.28,10143.0,0.471,85.1
2023-10-30T01:30:13,2420,42.8014,5.9826,0.611,0.068,3.661,155.0,151.0,152.0,11.8,1504.7,271.3,-0.8,0.9,2485.113,13.28,9612.0,0.615,83.6
2023-10-30T01:33:14,2420,42.8014,5.9826,0.602,0.044,3.685,155.0,151.0,152.0,11.8,1504.7,271.4,-0.8,0.9,2485.026,13.28,7011.0,0.604,85.8
2023-10-30T01:36:14,2420,42.8014,5.9826,0.829,0.032,3.482,155.0,152.0,152.0,11.8,1504.7,271.4,-0.8,0.9,2485.131,13.28,11595.0,0.83,87.8
2023-10-30T01:39:14,2420,42.8014,5.9826,0.635,0.039,3.641,155.0,152.0,152.0,11.8,1504.7,271.4,-0.8,0.9,2485.251,13.28,9015.0,0.636,86.5
2023-10-30T01:42:13,2420,42.8014,5.9826,0.881,0.018,3.425,157.0,152.0,152.0,11.8,1504.7,271.3,-0.8,0.8,2485.091,13.28,9595.0,0.881,88.8
2023-10-30T01:45:13,2420,42.8014,5.9826,0.686,0.028,3.61,155.0,151.0,152.0,11.8,1504.7,271.4,-0.8,0.9,2485.554,13.28,775.0,0.686,87.7
2023-10-30T01:48:13,2420,42.8014,5.9826,0.648,0.051,3.681,155.0,151.0,152.0,11.8,1504.7,271.4,-0.8,0.9,2485.45,13.28,779.0,0.65,85.5
2023-10-30T01:51:13,2420,42.8014,5.9826,0.604,0.052,3.671,155.0,151.0,152.0,11.8,1504.7,271.4,-0.9,0.9,2485.372,13.28,835.0,0.606,85.1
2023-10-30T01:54:14,2420,42.8014,5.9826,0.542,0.052,3.754,155.0,151.0,152.0,11.7,1504.7,271.4,-0.8,0.9,2485.568,13.28,785.0,0.544,84.5
2023-10-30T01:57:14,2420,42.8014,5.9826,0.726,0.034,3.568,155.0,152.0,152.0,11.8,1504.7,271.4,-0.8,0.9,2485.251,13.28,771.0,0.727,87.3
2023-10-30T02:03:13,2420,42.8014,5.9826,0.647,0.051,3.576,155.0,152.0,152.0,11.8,1504.7,271.2,-0.8,0.9,2485.476,13.28,1654.0,0.649,85.5
2023-10-30T02:06:13,2420,42.8014,5.9826,0.644,0.053,3.633,155.0,152.0,152.0,11.8,1504.7,271.4,-0.9,0.9,2485.57,13.28,1059.0,0.646,85.3
2023-10-30T02:09:13,2420,42.8014,5.9826,0.351,0.055,3.942,155.0,151.0,152.0,11.8,1504.7,271.4,-0.9,0.9,2485.807,13.28,777.0,0.355,81.1
2023-10-30T02:12:13,2420,42.8014,5.9826,0.549,0.061,3.759,155.0,152.0,152.0,11.8,1504.7,271.4,-0.8,0.9,2485.299,13.28,788.0,0.552,83.7
2023-10-30T02:15:13,2420,42.8014,5.9826,0.825,0.044,3.484,155.0,152.0,152.0,11.8,1504.7,271.4,-0.8,0.9,2485.032,13.28,780.0,0.826,87.0
2023-10-30T02:18:13,2420,42.8014,5.9826,0.686,0.034,3.6,155.0,151.0,152.0,11.8,1504.7,271.3,-0.9,0.9,2485.346,13.28,775.0,0.687,87.2
2023-10-30T02:21:14,2420,42.8014,5.9826,0.613,0.051,3.711,155.0,151.0,152.0,11.8,1504.7,271.3,-0.9,0.9,2485.127,13.28,779.0,0.615,85.2
2023-10-30T02:24:14,2420,42.8014,5.9826,0.685,0.054,3.636,155.0,151.0,152.0,11.8,1504.7,271.3,-0.8,0.9,2485.49,13.28,785.0,0.687,85.5
2023-10-30T02:27:14,2420,42.8014,5.9826,0.664,0.043,3.653,155.0,151.0,152.0,11.8,1504.7,271.3,-0.8,0.9,2485.42,13.28,795.0,0.665,86.3
2023-10-30T02:30:14,2420,42.8014,5.9826,0.513,0.044,3.779,155.0,151.0,152.0,11.8,1504.7,271.4,-0.8,0.8,2485.384,13.28,779.0,0.515,85.1
2023-10-30T02:33:13,2420,42.8014,5.9826,0.686,0.038,3.555,155.0,151.0,152.0,11.8,1504.7,271.3,-0.8,0.9,2485.456,13.28,786.0,0.687,86.8
2023-10-30T02:36:13,2420,42.8014,5.9826,0.411,0.056,3.904,155.0,151.0,152.0,11.8,1504.7,271.4,-0.8,0.9,2485.498,13.28,768.0,0.415,82.2
2023-10-30T02:39:13,2420,42.8014,5.9826,0.499,0.061,3.833,155.0,151.0,152.0,11.8,1504.7,271.3,-0.8,0.9,2485.402,13.28,983.0,0.503,83.0
2023-10-30T02:42:13,2420,42.8014,5.9826,0.463,0.036,3.845,155.0,152.0,152.0,11.8,1504.7,271.3,-0.8,0.9,2485.139,13.28,772.0,0.464,85.6
2023-10-30T02:45:13,2420,42.8014,5.9826,0.516,0.066,3.792,155.0,151.0,152.0,11.8,1504.7,271.3,-0.9,0.8,2485.41,13.28,781.0,0.52,82.7
2023-10-30T02:48:13,2420,42.8014,5.9826,0.46,0.073,3.872,155.0,151.0,152.0,11.8,1504.7,271.4,-0.8,0.9,2485.51,13.28,790.0,0.466,81.0
2023-10-30T02:51:13,2420,42.8014,5.9826,0.6,0.046,3.726,155.0,152.0,152.0,11.8,1504.7,271.3,-0.8,0.9,2485.332,13.28,788.0,0.602,85.6
2023-10-30T02:54:14,2420,42.8014,5.9826,0.367,0.049,3.931,155.0,152.0,152.0,11.8,1504.7,271.4,-0.8,0.9,2485.566,13.28,767.0,0.37,82.4
2023-10-30T02:57:14,2420,42.8014,5.9826,0.489,0.059,3.821,155.0,152.0,152.0,11.8,1504.7,271.4,-0.8,0.9,2485.129,13.28,762.0,0.493,83.1
2023-10-30T03:03:13,2420,42.8014,5.9826,0.631,0.298,3.299,155.0,151.0,152.0,11.8,1504.7,271.5,-0.8,0.9,2485.305,13.28,789.0,0.698,64.7
2023-10-30T03:06:14,2420,42.8014,5.9826,0.455,0.057,3.827,155.0,152.0,152.0,11.8,1504.7,271.4,-0.8,0.9,2485.518,13.28,761.0,0.459,82.9
2023-10-30T03:09:14,2420,42.8014,5.9826,0.469,0.06,3.811,155.0,151.0,152.0,11.8,1504.7,271.4,-0.9,0.9,2485.633,13.28,785.0,0.473,82.7
2023-10-30T03:12:14,2420,42.8014,5.9826,0.351,0.062,4.021,155.0,151.0,152.0,11.8,1504.7,271.3,-0.9,0.9,2485.446,13.28,792.0,0.356,80.0
2023-10-30T03:15:14,2420,42.8014,5.9826,0.62,0.047,3.641,155.0,151.0,152.0,11.8,1504.7,271.4,-0.8,0.9,2485.49,13.28,775.0,0.622,85.7
2023-10-30T03:18:14,2420,42.8014,5.9826,0.473,0.062,3.836,155.0,151.0,152.0,11.8,1504.7,271.4,-0.8,0.9,2485.287,13.28,791.0,0.477,82.5
2023-10-30T03:21:13,2420,42.8014,5.9826,0.405,0.046,3.903,155.0,152.0,152.0,11.8,1504.7,271.3,-0.8,0.9,2485.38,13.28,775.0,0.408,83.5
2023-10-30T03:24:13,2420,42.8014,5.9826,0.563,0.048,3.727,155.0,152.0,152.0,11.8,1504.7,271.3,-0.8,0.9,2485.235,13.28,775.0,0.565,85.1
2023-10-30T03:27:13,2420,42.8014,5.9826,0.6,0.04,3.677,155.0,152.0,152.0,11.8,1504.7,271.3,-0.8,0.9,2485.103,13.28,786.0,0.601,86.2
2023-10-30T03:30:14,2420,42.8014,5.9826,0.655,0.033,3.672,155.0,151.0,152.0,11.8,1504.7,271.4,-0.9,0.9,2485.5,13.28,786.0,0.656,87.1
2023-10-30T03:33:13,2420,42.8014,5.9826,0.521,0.043,3.786,155.0,152.0,152.0,11.8,1504.7,271.3,-0.8,0.9,2485.324,13.28,771.0,0.523,85.3
2023-10-30T03:36:13,2420,42.8014,5.9826,0.341,0.061,3.983,155.0,151.0,152.0,11.8,1504.7,271.3,-0.9,0.9,2485.042,13.28,782.0,0.346,79.9
2023-10-30T03:39:13,2420,42.8014,5.9826,0.594,0.032,3.709,155.0,151.0,152.0,11.8,1504.7,271.3,-0.9,0.9,2485.33,13.28,763.0,0.595,86.9
2023-10-30T03:42:13,2420,42.8014,5.9826,0.517,0.048,3.816,155.0,152.0,153.0,11.7,1504.7,271.3,-0.8,0.9,2485.344,13.28,1011.0,0.519,84.7
2023-10-30T03:45:13,2420,42.8014,5.9826,0.88,0.024,3.429,155.0,152.0,152.0,11.8,1504.7,271.4,-0.8,0.9,2485.438,13.28,2666.0,0.88,88.4
2023-10-30T03:48:14,2420,42.8014,5.9826,0.625,0.037,3.64,161.0,152.0,152.0,11.8,1504.7,271.4,-0.8,0.9,2485.864,13.28,4286.0,0.626,86.6
2023-10-30T03:51:14,2420,42.8014,5.9826,0.817,0.032,3.513,155.0,152.0,152.0,11.8,1504.7,271.4,-0.8,0.8,2485.384,13.28,16511.0,0.818,87.8
2023-10-30T03:54:14,2420,42.8014,5.9826,0.295,0.059,4.03,155.0,152.0,153.0,11.8,1504.7,271.3,-0.8,0.9,2484.962,13.28,775.0,0.301,78.7
2023-10-30T03:57:14,2420,42.8014,5.9826,0.618,0.031,3.675,155.0,151.0,152.0,11.8,1504.7,271.4,-0.8,0.9,2485.179,13.28,779.0,0.619,87.1
2023-10-30T04:03:13,2420,42.8014,5.9826,0.643,0.056,3.63,155.0,151.0,152.0,11.8,1504.7,271.4,-0.8,0.9,2485.687,13.28,769.0,0.645,85.0
2023-10-30T04:06:13,2420,42.8014,5.9826,0.771,0.029,3.506,155.0,151.0,152.0,11.8,1504.7,271.4,-0.8,0.9,2485.488,13.28,783.0,0.772,87.9
2023-10-30T04:09:13,2420,42.8014,5.9826,0.733,0.044,3.506,155.0,151.0,152.0,11.8,1504.7,271.3,-0.9,0.9,2485.709,13.28,783.0,0.734,86.6
2023-10-30T04:12:13,2420,42.8014,5.9826,0.59,0.044,3.663,155.0,151.0,152.0,11.8,1504.7,271.4,-0.9,0.9,2485.709,13.28,783.0,0.592,85.7
2023-10-30T04:15:14,2420,42.8014,5.9826,0.729,0.053,3.561,155.0,151.0,152.0,11.8,1504.7,271.3,-0.8,0.9,2485.5,13.28,766.0,0.731,85.8
2023-10-30T04:18:14,2420,42.8014,5.9826,0.456,0.04,3.852,155.0,151.0,152.0,11.8,1504.7,271.4,-0.8,0.9,2485.111,13.28,822.0,0.458,85.0
2023-10-30T04:21:14,2420,42.8014,5.9826,0.532,0.044,3.82,155.0,151.0,152.0,11.8,1504.7,271.3,-0.8,0.9,2485.408,13.28,776.0,0.534,85.3
2023-10-30T04:24:14,2420,42.8014,5.9826,0.587,0.028,3.742,155.0,151.0,152.0,11.8,1504.7,271.4,-0.8,0.9,2485.125,13.28,893.0,0.588,87.3
2023-10-30T04:27:14,2420,42.8014,5.9826,0.609,0.046,3.645,155.0,151.0,152.0,11.8,1504.7,271.4,-0.8,0.9,2485.446,13.28,776.0,0.611,85.7
2023-10-30T04:30:14,2420,42.8014,5.9826,0.55,0.059,3.724,155.0,151.0,152.0,11.8,1504.7,271.4,-0.8,0.9,2485.619,13.28,776.0,0.553,83.9
2023-10-30T04:33:13,2420,42.8014,5.9826,0.615,0.041,3.609,155.0,151.0,152.0,11.8,1504.7,271.4,-0.9,0.9,2485.384,13.28,778.0,0.616,86.2
2023-10-30T04:36:13,2420,42.8014,5.9826,0.441,0.055,3.81,155.0,151.0,152.0,11.8,1504.7,271.3,-0.8,0.9,2485.173,13.28,774.0,0.444,82.9
2023-10-30T04:39:13,2420,42.8014,5.9826,0.612,0.047,3.638,155.0,151.0,152.0,11.8,1504.7,271.3,-0.9,0.9,2485.378,13.28,771.0,0.614,85.6
2023-10-30T04:42:13,2420,42.8014,5.9826,0.552,0.052,3.748,155.0,151.0,152.0,11.8,1504.7,271.3,-0.8,0.9,2485.478,13.28,787.0,0.554,84.6
2023-10-30T04:45:14,2420,42.8014,5.9826,0.456,0.043,3.813,155.0,152.0,153.0,11.8,1504.7,271.4,-0.8,0.9,2485.583,13.28,783.0,0.458,84.6
2023-10-30T04:48:14,2420,42.8014,5.9826,0.405,0.06,3.855,155.0,152.0,152.0,11.8,1504.7,271.5,-0.8,0.9,2485.807,13.28,763.0,0.409,81.6
2023-10-30T04:51:14,2420,42.8014,5.9826,0.245,0.053,4.054,155.0,151.0,152.0,11.8,1504.7,271.3,-0.8,0.9,2485.627,13.28,774.0,0.25,77.8
2023-10-30T04:54:14,2420,42.8014,5.9826,0.435,0.031,3.8,155.0,151.0,152.0,11.8,1504.7,271.3,-0.9,0.9,2485.133,13.28,765.0,0.436,85.9
2023-10-30T04:57:14,2420,42.8014,5.9826,0.639,0.047,3.614,155.0,152.0,152.0,11.8,1504.7,271.5,-0.8,0.9,2485.629,13.28,773.0,0.641,85.8
2023-10-30T05:03:13,2420,42.8014,5.9826,0.403,0.067,3.866,155.0,151.0,152.0,11.8,1504.7,271.4,-0.8,0.9,2485.793,13.28,747.0,0.409,80.6
2023-10-30T05:06:13,2420,42.8014,5.9826,0.384,0.067,3.91,155.0,151.0,152.0,11.8,1504.7,271.4,-0.8,0.9,2485.213,13.28,1005.0,0.39,80.1
2023-10-30T05:09:13,2420,42.8014,5.9826,0.352,0.068,3.923,155.0,151.0,152.0,11.8,1504.7,271.4,-0.8,0.9,2485.472,13.28,780.0,0.358,79.1
2023-10-30T05:12:13,2420,42.8014,5.9826,0.338,0.057,3.925,155.0,152.0,152.0,11.8,1504.7,271.3,-0.8,0.9,2485.657,13.28,782.0,0.343,80.4
2023-10-30T05:15:14,2420,42.8014,5.9826,0.489,0.051,3.776,155.0,151.0,152.0,11.8,1504.7,271.3,-0.9,0.8,2485.633,13.28,779.0,0.492,84.0
2023-10-30T05:18:14,2420,42.8014,5.9826,0.206,0.083,4.061,155.0,151.0,152.0,11.8,1504.7,271.3,-0.8,0.9,2485.583,13.28,769.0,0.222,68.1
2023-10-30T05:21:14,2420,42.8014,5.9826,0.507,0.04,3.755,155.0,151.0,152.0,11.7,1504.7,271.3,-0.8,0.8,2485.384,13.28,779.0,0.509,85.5
2023-10-30T05:24:14,2420,42.8014,5.9826,0.367,0.04,3.867,155.0,151.0,152.0,11.8,1504.7,271.4,-0.8,0.9,2485.532,13.28,787.0,0.369,83.8
2023-10-30T05:27:14,2420,42.8014,5.9826,0.42,0.049,3.82,155.0,152.0,152.0,11.8,1504.7,271.4,-0.8,0.9,2485.277,13.28,777.0,0.423,83.3
2023-10-30T05:30:14,2420,42.8014,5.9826,0.737,0.056,3.507,155.0,151.0,152.0,11.7,1504.7,271.4,-0.9,0.9,2485.536,13.28,772.0,0.739,85.7
2023-10-30T05:33:13,2420,42.8014,5.9826,0.23,0.046,4.005,155.0,151.0,152.0,11.8,1504.7,271.3,-0.8,0.9,2485.984,13.28,769.0,0.234,78.7
2023-10-30T05:36:13,2420,42.8014,5.9826,0.194,0.085,4.038,155.0,151.0,152.0,11.8,1504.7,271.5,-0.8,0.9,2485.458,13.28,763.0,0.211,66.3
2023-10-30T05:39:13,2420,42.8014,5.9826,0.524,0.05,3.784,154.0,151.0,152.0,11.8,1504.7,271.5,-0.8,0.9,2485.809,13.28,771.0,0.526,84.6
2023-10-30T05:42:13,2420,42.8014,5.9826,0.515,0.056,3.762,155.0,151.0,152.0,11.8,1504.7,271.3,-0.8,0.9,2485.745,13.28,779.0,0.518,83.8
2023-10-30T05:45:14,2420,42.8014,5.9826,0.45,0.056,3.835,155.0,151.0,152.0,11.8,1504.7,271.3,-0.8,0.9,2485.48,13.28,773.0,0.453,82.9
2023-10-30T05:48:14,2420,42.8014,5.9826,0.517,0.044,3.765,155.0,151.0,152.0,11.8,1504.7,271.4,-0.8,0.9,2485.289,13.28,775.0,0.519,85.1
2023-10-30T05:51:14,2420,42.8014,5.9826,0.507,0.042,3.75,155.0,151.0,152.0,11.8,1504.7,271.4,-0.8,0.8,2485.281,13.28,805.0,0.509,85.3
2023-10-30T05:54:14,2420,42.8014,5.9826,0.709,0.042,3.582,155.0,151.0,152.0,11.8,1504.7,271.3,-0.8,0.9,2485.49,13.28,767.0,0.71,86.6
2023-10-30T05:57:14,2420,42.8014,5.9826,0.422,0.038,3.88,155.0,151.0,152.0,11.8,1504.7,271.3,-0.8,0.9,2485.681,13.28,774.0,0.424,84.9
2023-10-30T06:03:13,2420,42.8014,5.9826,0.563,0.039,3.674,155.0,151.0,152.0,11.8,1504.7,271.4,-0.8,0.9,2485.534,13.28,768.0,0.564,86.0
2023-10-30T06:06:13,2420,42.8014,5.9826,0.394,0.082,3.86,155.0,151.0,152.0,11.8,1504.7,271.4,-0.9,0.9,2485.492,13.28,787.0,0.402,78.2
2023-10-30T06:09:13,2420,42.8014,5.9826,0.293,0.051,3.976,155.0,152.0,152.0,11.8,1504.7,271.4,-0.8,0.9,2485.45,13.28,766.0,0.297,80.1
2023-10-30T06:12:13,2420,42.8014,5.9826,0.224,0.068,4.082,156.0,152.0,153.0,11.8,1504.7,271.3,-0.8,0.9,2485.868,13.28,781.0,0.234,73.1
2023-10-30T06:15:13,2420,42.8014,5.9826,0.428,0.063,3.821,155.0,152.0,153.0,11.8,1504.7,271.3,-0.8,0.9,2485.745,13.28,797.0,0.433,81.6
2023-10-30T06:18:13,2420,42.8014,5.9826,0.823,0.053,3.426,155.0,152.0,153.0,11.8,1504.7,271.4,-0.8,0.9,2485.546,13.28,783.0,0.825,86.3
2023-10-30T06:21:14,2420,42.8014,5.9826,0.555,0.061,3.691,155.0,151.0,152.0,11.8,1504.7,271.4,-0.8,0.9,2485.623,13.28,788.0,0.558,83.7
2023-10-30T06:24:14,2420,42.8014,5.9826,0.547,0.041,3.705,155.0,151.0,152.0,11.8,1504.7,271.4,-0.8,0.9,2485.37,13.28,772.0,0.548,85.7
2023-10-30T06:27:14,2420,42.8014,5.9826,0.573,0.039,3.711,155.0,151.0,152.0,11.8,1504.7,271.4,-0.8,0.9,2485.346,13.28,773.0,0.574,86.1
2023-10-30T06:30:14,2420,42.8014,5.9826,0.484,0.063,3.793,155.0,152.0,152.0,11.8,1504.7,271.4,-0.9,0.9,2485.775,13.28,779.0,0.488,82.6
2023-10-30T06:33:13,2420,42.8014,5.9826,0.589,0.046,3.685,155.0,151.0,152.0,11.8,1504.7,271.3,-0.9,0.9,2485.368,13.28,796.0,0.591,85.5
2023-10-30T06:36:14,2420,42.8014,5.9826,0.499,0.04,3.789,155.0,151.0,152.0,11.7,1504.7,271.4,-0.8,0.9,2485.763,13.28,775.0,0.501,85.4
2023-10-30T06:39:14,2420,42.8014,5.9826,0.502,0.05,3.787,155.0,152.0,152.0,11.8,1504.7,271.3,-0.9,0.9,2485.299,13.28,788.0,0.504,84.3
2023-10-30T06:42:14,2420,42.8014,5.9826,0.473,0.062,3.798,155.0,152.0,152.0,11.8,1504.7,271.4,-0.8,0.9,2485.615,13.28,795.0,0.477,82.5
2023-10-30T06:45:14,2420,42.8014,5.9826,0.424,0.042,3.806,155.0,151.0,152.0,11.8,1504.7,271.4,-0.8,0.9,2485.211,13.28,785.0,0.426,84.3
2023-10-30T06:48:13,2420,42.8014,5.9826,0.588,0.056,3.697,155.0,151.0,152.0,11.8,1504.7,271.3,-0.8,0.9,2485.191,13.28,775.0,0.591,84.6
2023-10-30T06:51:13,2420,42.8014,5.9826,0.564,0.035,3.649,155.0,151.0,152.0,11.8,1504.7,271.3,-0.8,0.9,2485.769,13.28,773.0,0.565,86.5
2023-10-30T06:54:13,2420,42.8014,5.9826,0.466,0.077,3.818,155.0,151.0,152.0,11.7,1504.7,271.4,-0.9,0.9,2485.101,13.28,775.0,0.472,80.6
2023-10-30T06:57:13,2420,42.8014,5.9826,0.529,0.055,3.753,155.0,151.0,152.0,11.8,1504.7,271.3,-0.8,0.9,2485.38,13.28,774.0,0.532,84.1
2023-10-30T07:03:13,2420,42.8014,5.9826,0.715,0.049,3.622,155.0,152.0,152.0,11.8,1504.7,271.5,-0.8,0.9,2485.765,13.28,758.0,0.717,86.1
2023-10-30T07:06:13,2420,42.8014,5.9826,0.487,0.054,3.843,155.0,151.0,152.0,11.8,1504.7,271.4,-0.8,0.9,2485.585,13.28,768.0,0.49,83.7
2023-10-30T07:09:14,2420,42.8014,5.9826,0.452,0.034,3.839,155.0,151.0,152.0,11.8,1504.7,271.3,-0.8,0.9,2485.655,13.28,969.0,0.453,85.7
2023-10-30T07:12:14,2420,42.8014,5.9826,0.344,0.068,3.952,155.0,151.0,152.0,11.8,1504.7,271.5,-0.8,0.9,2485.922,13.28,779.0,0.351,78.8
2023-10-30T07:15:14,2420,42.8014,5.9826,0.728,0.06,3.542,155.0,151.0,152.0,11.8,1504.7,271.4,-0.9,0.9,2486.014,13.28,776.0,0.73,85.3
2023-10-30T07:18:14,2420,42.8014,5.9826,0.542,0.044,3.796,155.0,151.0,152.0,11.8,1504.7,271.5,-0.8,0.9,2485.653,13.28,3887.0,0.544,85.4
2023-10-30T07:21:14,2420,42.8014,5.9826,0.426,0.045,3.859,155.0,151.0,152.0,11.8,1504.7,271.4,-0.8,0.9,2485.063,13.28,3703.0,0.428,84.0
2023-10-30T07:24:13,2420,42.8014,5.9826,0.324,-0.19,3.598,155.0,151.0,152.0,11.8,1504.7,271.4,-0.8,0.9,2485.534,13.28,783.0,0.376,120.4
2023-10-30T07:27:13,2420,42.8014,5.9826,0.46,0.298,3.401,155.0,151.0,152.0,11.8,1504.7,271.3,-0.9,0.8,2485.659,13.28,776.0,0.548,57.1
2023-10-30T07:30:14,2420,42.8014,5.9826,0.735,0.024,3.53,155.0,151.0,152.0,11.8,1504.7,271.3,-0.8,0.9,2485.203,13.28,767.0,0.735,88.1
2023-10-30T07:33:13,2420,42.8014,5.9826,0.44,0.05,3.802,155.0,152.0,152.0,11.8,1504.7,271.4,-0.8,0.9,2485.994,13.28,786.0,0.443,83.5
2023-10-30T07:36:13,2420,42.8014,5.9826,0.397,0.059,3.883,155.0,151.0,152.0,11.8,1504.7,271.4,-0.8,0.9,2485.623,13.28,760.0,0.401,81.5
2023-10-30T07:39:14,2420,42.8014,5.9826,0.712,0.042,3.593,155.0,151.0,152.0,11.8,1504.7,271.3,-0.9,0.9,2485.452,13.28,919.0,0.713,86.6
2023-10-30T07:42:14,2420,42.8014,5.9826,0.153,0.06,4.189,155.0,151.0,152.0,11.8,1504.7,271.3,-0.8,0.9,2486.042,13.28,789.0,0.164,68.6
2023-10-30T07:45:14,2420,42.8014,5.9826,0.338,0.065,3.966,155.0,151.0,152.0,11.8,1504.7,271.4,-0.9,0.9,2485.287,13.28,787.0,0.344,79.1
2023-10-30T07:48:14,2420,42.8014,5.9826,0.55,0.036,3.755,155.0,151.0,152.0,11.8,1504.7,271.3,-0.8,0.9,2485.737,13.28,761.0,0.551,86.3
2023-10-30T07:51:14,2420,42.8014,5.9826,0.72,0.049,3.567,155.0,151.0,152.0,11.8,1504.7,271.4,-0.8,0.8,2485.356,13.28,786.0,0.722,86.1
2023-10-30T07:54:14,2420,42.8014,5.9826,0.48,0.042,3.805,155.0,151.0,152.0,11.8,1504.7,271.4,-0.8,0.9,2485.512,13.28,2485.0,0.482,85.0
2023-10-30T07:57:13,2420,42.8014,5.9826,0.694,0.038,3.613,155.0,151.0,152.0,11.8,1504.7,271.3,-0.9,0.9,2485.472,13.28,780.0,0.695,86.9
2023-10-30T08:03:13,2420,42.8014,5.9826,0.551,0.029,3.769,155.0,151.0,152.0,11.8,1504.7,271.3,-0.9,0.9,2485.711,13.28,789.0,0.552,87.0
2023-10-30T08:06:14,2420,42.8014,5.9826,0.394,0.078,3.856,155.0,151.0,152.0,11.8,1504.7,271.4,-0.8,0.9,2485.795,13.28,777.0,0.402,78.8
2023-10-30T08:09:14,2420,42.8014,5.9826,0.131,0.042,3.334,155.0,151.0,152.0,11.8,1504.7,271.4,-0.8,0.9,2485.49,13.28,758.0,0.137,72.2
2023-10-30T08:12:14,2420,42.8014,5.9826,0.479,0.044,3.845,155.0,151.0,152.0,11.8,1504.7,271.3,-0.8,0.8,2485.581,13.28,1721.0,0.481,84.8
2023-10-30T08:15:14,2420,42.8014,5.9826,0.748,0.025,3.518,155.0,151.0,152.0,11.8,1504.7,271.4,-0.8,0.9,2485.687,13.28,782.0,0.748,88.1
2023-10-30T08:18:14,2420,42.8014,5.9826,0.459,0.074,3.799,155.0,151.0,152.0,11.8,1504.7,271.3,-0.8,0.9,2485.649,13.28,783.0,0.465,80.8
2023-10-30T08:21:14,2420,42.8014,5.9826,0.26,-0.211,3.597,155.0,151.0,152.0,11.8,1504.7,271.4,-0.8,0.8,2485.605,13.28,768.0,0.335,129.1
2023-10-30T08:24:14,2420,42.8014,5.9826,0.333,0.289,3.548,155.0,151.0,152.0,11.7,1504.7,271.4,-0.8,0.9,2485.597,13.28,782.0,0.441,49.0
2023-10-30T08:27:13,2420,42.8014,5.9826,0.405,0.05,3.912,155.0,151.0,152.0,11.8,1504.7,271.3,-0.8,0.9,2485.761,13.28,775.0,0.408,83.0
2023-10-30T08:30:13,2420,42.8014,5.9826,0.249,0.062,4.039,155.0,151.0,152.0,11.8,1504.7,271.4,-0.8,0.9,2485.412,13.28,811.0,0.257,76.0
2023-10-30T08:33:14,2420,42.8014,5.9826,0.38,0.069,3.829,155.0,151.0,152.0,11.8,1504.7,271.4,-0.8,0.9,2485.703,13.28,773.0,0.386,79.7
2023-10-30T08:36:14,2420,42.8014,5.9826,0.748,0.044,3.484,155.0,151.0,152.0,11.7,1504.7,271.4,-0.8,0.9,2485.57,13.28,768.0,0.749,86.6
2023-10-30T08:39:13,2420,42.8014,5.9826,0.276,0.055,4.045,155.0,151.0,152.0,11.8,1504.7,271.4,-0.8,0.9,2485.836,13.28,788.0,0.281,78.7
2023-10-30T08:42:14,2420,42.8014,5.9826,0.572,0.031,3.695,155.0,151.0,152.0,11.8,1504.7,271.4,-0.8,0.9,2485.406,13.28,783.0,0.573,86.9
2023-10-30T08:45:14,2420,42.8014,5.9826,0.449,0.043,3.83,155.0,151.0,152.0,11.8,1504.7,271.4,-0.8,0.9,2485.631,13.28,779.0,0.451,84.5
2023-10-30T08:48:14,2420,42.8014,5.9826,0.6,0.051,3.678,155.0,151.0,152.0,11.8,1504.7,271.3,-0.8,0.9,2485.532,13.28,1264.0,0.602,85.1
2023-10-30T08:51:14,2420,42.8014,5.9826,0.48,0.062,3.836,155.0,151.0,152.0,11.8,1504.7,271.4,-0.8,0.9,2485.581,13.28,1704.0,0.484,82.6
2023-10-30T08:54:14,2420,42.8014,5.9826,0.425,0.055,3.876,155.0,151.0,152.0,11.8,1504.7,271.3,-0.8,0.9,2485.508,13.28,789.0,0.429,82.6
2023-10-30T08:57:14,2420,42.8014,5.9826,0.31,-0.202,3.568,155.0,151.0,152.0,11.8,1504.7,271.4,-0.8,0.9,2485.884,13.28,780.0,0.37,123.1
2023-10-30T09:03:13,2420,42.8014,5.9826,0.487,0.042,3.84,155.0,151.0,152.0,11.8,1504.7,271.3,-0.9,0.9,2485.354,13.28,834.0,0.489,85.1
2023-10-30T09:06:14,2420,42.8014,5.9826,0.44,0.053,3.821,155.0,151.0,152.0,11.7,1504.7,271.3,-0.8,0.9,2485.693,13.28,786.0,0.443,83.1